RH
39 36 33 31 30 28 29 31 34 36 37 40 42 41 41 41 41 41 38 36 35 36 39 44 46 46 46 47 48 47 45 44 46 47 46 48 49 48 49 48 48 47 44 43 42 41 39 38 38 39 42 44 45 46 47 48 49 50 50 49 48 48 47 47 47 46 46 45 43 42 42 41 39 38 37 35 34 33 32 31 31 30 29 28 27
43 40 36 33 31 29 28 28 30 33 35 37 39 39 39 38 39 39 37 35 33 33 35 40 44 46 46 46 46 47 45 42 42 43 43 44 46 46 48 48 47 48 47 45 44 44 43 42 41 42 42 43 44 45 47 48 48 48 49 48 47 47 47 47 47 46 45 43 41 39 39 38 36 35 34 32 32 32 32 31 30 28 27 26 25
50 46 42 37 35 32 30 28 27 29 31 34 37 38 37 37 36 37 36 35 33 31 32 35 39 44 46 46 45 45 45 43 42 41 42 43 42 41 44 46 45 45 47 48 47 45 44 44 45 45 45 44 43 44 45 46 46 46 46 45 44 44 44 44 44 44 43 41 39 37 36 34 32 32 30 30 30 30 29 28 26 26 25 25 25
63 57 51 45 40 36 33 31 28 27 27 29 32 35 36 36 36 35 35 35 34 32 31 33 35 39 43 45 44 43 44 44 43 42 42 42 41 38 38 40 41 41 44 47 49 48 46 44 44 45 46 45 45 45 45 44 44 43 43 42 40 40 41 40 41 41 40 39 38 36 34 32 31 31 30 29 28 27 26 24 23 23 22 22 22
76 72 65 57 49 42 37 34 31 29 27 26 27 30 33 34 35 35 35 35 34 34 33 32 33 36 40 44 46 45 44 44 43 43 42 42 40 38 36 36 37 37 38 42 45 47 47 46 45 45 46 46 45 44 43 42 41 41 40 39 38 38 39 39 39 39 38 38 36 34 32 31 30 29 29 27 26 25 24 22 22 21 20 20 20
85 84 80 72 62 53 44 38 34 31 29 27 25 26 28 31 33 34 34 34 34 34 34 34 34 35 38 42 46 47 46 44 42 42 41 40 40 38 37 35 34 34 34 35 37 39 41 42 42 42 43 43 41 39 37 36 35 36 36 36 36 37 37 38 38 38 37 36 34 32 30 29 28 27 27 26 24 24 23 21 21 20 20 20 20
88 88 87 83 76 66 54 45 39 35 32 30 29 27 26 27 30 32 32 32 33 33 33 34 35 36 37 39 42 46 46 45 43 41 40 39 38 37 36 35 34 33 33 33 33 34 35 36 36 37 37 36 36 34 33 31 30 30 30 31 32 33 33 34 35 35 35 33 32 30 30 29 28 28 27 26 24 24 23 22 21 20 21 21 20
87 89 89 88 84 76 66 56 47 42 38 34 32 31 28 26 27 30 31 31 31 32 32 33 35 36 37 38 40 43 44 45 44 43 41 40 39 38 36 35 33 33 33 32 32 32 32 33 33 32 32 31 31 31 31 30 29 28 29 29 30 30 30 30 31 31 31 30 29 29 29 29 28 27 26 25 25 25 25 25 24 24 24 22 21
87 90 91 91 88 84 80 70 58 52 47 41 37 35 33 30 27 27 30 31 32 32 31 32 34 36 38 39 40 41 43 43 43 43 42 41 39 38 37 35 34 32 31 31 31 30 30 30 29 29 28 28 28 28 28 28 28 28 28 29 29 29 29 29 30 30 29 28 28 29 29 29 28 27 26 25 26 26 26 27 27 27 26 24 21
87 91 93 94 92 90 87 79 68 61 58 52 46 40 38 36 33 30 30 31 33 34 34 33 33 34 37 39 40 40 41 42 42 43 42 42 40 39 38 36 34 32 30 29 28 27 27 26 26 26 26 25 24 25 25 26 26 26 26 27 28 28 28 28 29 31 31 31 31 31 32 31 30 29 28 26 26 27 27 28 28 27 26 25 21
86 89 90 92 93 93 92 85 77 72 70 66 59 51 46 42 40 37 35 33 33 33 33 33 32 33 34 36 38 39 40 41 41 41 41 41 41 40 38 36 35 32 30 29 28 27 26 26 25 26 25 24 23 22 22 22 23 23 23 24 25 27 27 27 28 30 31 31 31 31 31 30 29 28 28 26 25 25 26 26 26 26 24 24 21
84 86 87 88 90 91 92 91 87 83 79 76 72 66 61 55 47 41 38 36 35 33 32 30 30 31 32 33 34 35 36 37 39 39 39 39 40 40 39 38 36 34 32 31 29 28 28 27 26 26 26 26 25 23 22 20 20 20 20 20 21 23 24 25 25 26 27 27 27 27 26 26 26 25 24 24 24 25 25 24 24 24 22 21 20
83 84 87 89 89 90 91 92 92 90 86 83 81 77 73 68 60 50 42 38 36 35 35 32 30 30 31 31 31 32 32 33 34 35 35 36 37 37 38 37 36 35 33 31 30 29 29 28 28 27 27 27 27 27 25 23 21 20 19 19 20 20 21 22 22 23 23 24 25 24 23 23 23 22 22 24 25 25 24 23 22 21 20 19 19
82 85 87 88 90 92 92 92 92 91 90 88 87 86 82 79 74 65 53 44 40 38 38 38 36 34 33 33 32 31 31 32 32 32 32 33 34 34 34 34 34 34 33 31 30 29 29 29 28 27 27 28 27 27 27 26 24 23 22 21 21 20 20 20 20 20 20 21 21 20 19 19 20 20 20 23 24 23 22 22 21 21 20 20 20
79 81 83 85 88 91 93 92 91 90 90 89 90 89 86 83 81 75 67 58 52 49 49 50 49 44 38 36 36 36 36 35 34 34 35 35 34 33 32 32 32 31 30 29 28 27 27 27 27 27 27 27 26 26 27 27 27 26 26 25 24 23 21 20 20 20 19 19 19 19 17 17 18 18 19 21 22 22 23 23 23 23 23 22 22
73 75 78 80 82 85 89 92 91 90 90 90 91 90 86 83 82 80 78 72 67 64 64 65 65 60 51 43 42 44 45 44 41 40 41 40 39 37 36 35 33 31 30 29 28 27 27 27 27 28 28 28 27 28 29 30 29 29 29 28 28 27 25 23 23 22 22 22 21 21 20 20 20 21 22 23 23 23 23 23 24 25 25 25 24
67 69 73 74 74 77 80 84 87 88 90 90 91 90 88 85 84 83 84 84 81 79 78 76 75 73 65 56 52 53 54 53 51 49 48 46 43 41 41 40 38 35 33 32 31 30 30 31 32 32 32 31 31 33 35 35 33 31 30 29 29 28 27 26 27 27 26 26 25 24 23 22 22 22 22 22 22 22 22 23 25 26 26 26 25
64 64 67 69 68 68 70 72 74 77 80 84 87 89 88 88 88 86 87 89 90 89 88 86 84 81 76 70 65 62 60 59 58 58 56 53 50 46 44 43 42 41 40 39 39 39 39 38 38 36 35 35 36 38 40 39 35 33 33 31 30 29 28 29 30 29 29 28 26 25 23 22 22 22 22 22 22 23 23 23 26 28 29 28 27
60 59 60 62 64 65 66 66 67 69 71 74 80 85 87 87 87 87 87 89 91 91 91 90 88 87 86 83 79 73 68 64 63 63 63 61 57 53 48 46 46 46 47 47 48 47 47 46 44 41 38 36 37 38 40 39 37 37 38 37 33 31 31 32 31 30 29 29 27 26 25 24 24 23 23 24 25 26 26 26 28 31 32 31 31
57 55 53 55 58 62 64 67 71 74 74 73 77 81 82 81 81 82 84 87 89 90 90 90 89 88 89 89 87 83 79 75 71 68 68 68 66 63 59 57 56 56 55 54 54 53 51 50 49 46 44 41 40 39 41 42 41 40 42 42 39 37 37 36 34 32 30 29 29 28 27 27 27 26 26 26 28 29 29 29 31 34 35 33 33
52 52 51 50 51 52 55 59 63 67 69 70 72 73 72 70 72 77 81 85 88 89 89 89 89 88 88 88 87 86 84 84 83 81 79 78 77 75 73 70 69 68 67 66 66 64 62 59 56 54 52 50 49 47 46 46 44 43 43 44 43 43 43 41 40 39 37 34 33 32 32 31 31 30 29 29 29 31 32 33 34 37 37 35 35
42 43 45 45 44 43 43 45 47 50 54 57 60 63 64 64 67 71 74 77 79 81 83 85 86 86 86 86 85 84 83 84 87 88 88 87 85 84 82 80 79 78 78 78 77 75 73 71 69 65 62 59 58 58 57 55 52 49 48 48 47 47 46 46 45 46 45 43 40 39 39 40 39 38 36 35 34 34 34 35 38 41 42 41 40
37 37 37 37 36 35 35 35 36 38 41 44 49 55 61 63 65 69 72 74 74 74 75 78 81 82 83 84 84 83 83 82 84 87 89 89 88 88 88 87 86 86 85 84 84 83 81 79 77 75 72 69 66 66 65 64 61 59 58 56 55 55 54 53 53 52 51 50 49 47 47 46 45 44 43 44 42 40 38 39 42 47 49 49 47
36 35 35 34 33 32 32 32 33 34 36 39 44 50 54 56 59 63 67 72 75 74 74 77 79 79 79 81 82 82 81 81 82 83 84 85 85 86 86 85 85 85 84 84 85 86 86 85 84 82 80 77 74 72 72 71 70 69 68 67 66 65 64 64 63 61 58 57 58 57 55 54 53 51 51 53 52 48 45 44 46 49 51 51 50
38 37 36 35 34 33 32 32 31 33 34 36 39 44 47 49 51 53 55 60 63 65 67 71 74 74 75 76 76 74 73 73 73 75 77 79 81 82 81 79 79 78 76 74 74 76 79 82 84 84 84 83 81 78 77 78 78 78 78 76 75 74 72 71 69 68 66 64 65 64 63 61 60 60 61 62 61 59 55 51 49 51 53 52 51
39 37 36 35 34 33 32 32 31 30 31 32 34 38 41 43 45 46 47 50 52 54 56 59 61 63 66 67 66 64 65 66 68 68 70 72 74 76 78 80 80 79 75 72 71 70 71 72 74 76 79 83 84 84 83 84 83 83 82 81 80 79 78 76 74 73 72 71 70 69 68 67 65 64 66 67 67 67 65 61 58 57 57 56 52
40 38 35 34 33 31 30 30 30 29 29 30 31 33 36 39 40 40 41 43 45 47 48 49 51 52 53 54 54 54 56 58 61 62 63 64 65 67 71 75 78 79 78 75 72 71 69 68 67 66 66 68 73 77 78 79 78 78 78 78 79 79 78 77 75 75 75 75 75 75 74 74 73 71 71 71 71 71 72 70 68 66 64 61 55
40 38 36 35 33 32 30 29 28 28 27 28 29 31 34 38 39 38 37 37 37 39 40 41 41 42 41 42 42 42 42 44 47 49 50 50 51 52 54 57 62 66 68 67 64 64 65 67 67 65 62 60 60 62 63 64 64 65 66 68 70 72 73 73 73 74 76 78 79 78 78 79 78 77 76 75 74 73 73 70 68 65 64 61 55
36 36 35 34 33 32 31 30 29 28 28 27 27 28 30 34 37 38 39 37 36 35 35 36 36 35 35 35 35 34 34 34 35 37 38 38 38 39 40 42 47 51 55 56 55 55 57 62 65 64 62 59 58 59 60 59 58 59 60 60 61 62 64 66 67 71 76 80 81 80 78 79 80 79 77 75 72 70 68 66 64 61 59 56 53
33 33 33 32 31 30 30 30 29 29 28 27 27 26 26 27 29 31 33 36 37 37 36 35 34 33 33 33 32 32 32 32 33 34 35 33 32 31 32 33 35 38 42 45 47 48 51 55 57 57 57 56 57 63 67 66 63 63 63 63 62 60 60 63 65 67 70 74 76 77 77 77 77 76 74 71 69 68 67 67 67 65 63 60 57
31 31 31 31 31 30 29 28 28 27 27 26 25 23 23 22 23 23 24 25 28 31 34 35 34 34 33 33 32 31 31 31 32 34 34 32 31 30 31 31 30 31 32 35 39 45 51 54 54 55 55 56 59 65 71 71 70 72 72 71 68 64 64 67 70 71 71 71 73 75 77 78 78 76 74 74 73 72 72 73 74 74 72 69 67
31 30 30 31 32 32 31 31 29 28 27 25 24 23 21 20 20 20 20 20 19 20 23 26 29 31 31 30 30 29 27 27 27 28 28 29 29 30 30 30 30 31 32 31 33 40 46 49 50 51 53 54 56 60 64 67 72 77 80 78 75 73 73 74 76 77 76 75 74 76 79 81 82 80 80 81 81 81 80 80 79 76 73 70 70
32 31 30 30 31 31 31 31 30 30 29 27 26 25 23 22 20 19 19 19 18 17 17 17 20 23 25 25 26 25 24 24 24 24 24 25 26 26 27 29 31 34 36 36 38 41 43 43 43 44 45 47 49 51 54 57 62 70 78 81 81 82 83 82 80 79 78 77 75 76 78 80 82 82 82 83 84 85 84 81 76 72 70 71 74
32 31 31 30 30 29 29 28 28 28 28 28 27 26 25 24 23 22 21 19 18 17 16 16 16 18 20 21 23 24 24 23 23 23 24 25 26 27 29 31 34 36 38 39 42 44 44 43 42 40 39 39 40 41 44 46 49 55 63 71 75 78 80 79 77 76 76 75 74 73 74 76 77 78 80 82 83 83 81 77 72 70 71 73 76
30 30 29 29 28 28 27 27 26 26 26 26 26 26 25 25 24 23 23 22 20 19 18 17 17 17 19 21 23 24 24 22 22 23 25 25 25 27 30 32 33 34 35 36 38 40 41 42 41 41 39 37 35 35 36 38 40 43 47 52 57 61 63 65 66 67 69 71 70 69 69 71 72 74 76 79 82 82 79 75 72 71 71 72 74
26 26 26 27 26 25 25 24 23 23 23 23 23 23 24 24 24 24 22 21 22 22 21 19 18 17 18 20 22 24 24 23 21 22 24 24 22 22 24 27 29 30 31 31 32 33 34 35 36 37 37 36 35 34 33 34 36 38 40 43 45 47 49 51 54 57 60 62 64 64 64 65 67 70 72 74 76 78 77 75 73 70 70 72 74
24 24 24 25 24 24 24 23 22 22 21 21 21 22 22 24 26 27 24 21 21 22 22 22 21 20 18 18 20 22 24 25 23 23 23 22 21 22 23 25 26 28 29 28 28 29 29 29 29 30 30 30 30 31 31 32 32 33 36 38 41 43 44 46 48 51 54 57 60 60 59 59 60 62 64 67 69 72 72 71 70 68 68 68 70
25 25 24 25 24 23 24 23 23 22 22 21 22 23 25 28 30 29 25 23 23 24 23 23 23 22 21 21 20 21 22 23 24 24 23 22 23 25 26 25 25 26 26 25 25 25 25 25 25 24 24 25 25 25 25 26 26 27 29 31 34 37 40 42 43 45 48 51 53 55 55 55 55 56 57 58 60 63 64 64 63 62 62 63 64
28 26 25 24 23 23 23 23 22 23 23 24 25 26 28 30 30 27 26 27 28 28 28 27 25 23 22 23 22 22 22 22 23 24 25 26 26 26 26 25 25 24 24 23 23 23 23 23 23 23 23 23 23 22 21 21 22 22 22 23 25 28 31 35 38 40 41 42 43 44 45 46 48 51 53 54 54 55 57 57 56 55 55 56 57
32 29 27 24 22 21 21 22 22 23 23 25 25 25 26 26 26 27 29 31 32 31 31 31 28 25 23 23 24 24 24 24 24 24 25 25 26 26 26 26 25 24 24 25 26 26 25 25 24 24 24 24 23 21 20 20 20 20 20 19 19 20 21 24 27 30 33 35 37 37 37 37 37 39 42 45 47 48 49 51 52 52 52 51 51
33 32 30 27 25 22 21 20 20 20 21 22 22 22 23 24 26 29 32 33 33 32 32 33 32 28 25 24 25 27 28 27 27 27 26 26 25 25 25 24 25 25 26 28 28 28 28 28 28 27 26 25 24 23 21 20 20 19 18 18 18 18 18 18 19 20 22 25 28 30 32 33 33 33 33 35 37 39 40 42 45 47 49 50 50
32 31 30 29 27 25 24 23 21 20 20 20 21 22 24 27 30 33 34 33 33 33 32 33 33 31 28 26 26 27 29 29 28 28 28 28 28 27 27 27 28 28 29 30 30 30 30 30 30 30 29 28 26 25 23 23 22 20 19 18 17 16 16 17 17 17 17 18 19 21 23 25 28 30 31 32 33 34 35 37 38 40 43 45 47
35 32 30 28 27 27 26 26 26 25 25 25 27 29 31 32 33 33 33 33 34 34 33 33 33 32 30 29 27 26 26 27 27 27 27 28 28 28 29 30 31 31 31 31 31 31 31 31 31 31 31 30 29 27 26 25 24 22 20 19 18 17 17 16 16 15 15 15 16 16 17 18 20 23 26 29 31 33 34 36 37 38 40 42 44
40 37 34 31 30 29 29 29 31 31 32 33 35 35 35 35 35 34 34 34 34 34 34 34 33 32 32 31 30 28 27 27 27 27 27 27 28 28 29 31 32 32 32 32 32 32 31 31 31 31 31 30 29 28 27 26 25 23 22 21 20 20 19 18 18 17 16 15 14 14 14 14 15 17 19 21 25 28 31 35 39 41 43 45 46
42 40 38 36 35 34 34 34 35 37 37 36 36 35 35 37 37 37 36 35 35 34 34 34 34 34 33 33 32 31 31 30 30 29 28 29 29 29 30 30 31 31 31 31 32 31 31 31 31 31 30 30 29 28 27 26 25 24 24 23 23 22 22 21 20 19 18 17 17 16 15 14 13 14 14 16 18 21 25 30 36 40 44 47 50
43 42 41 40 39 38 38 38 40 41 40 38 36 35 35 36 37 38 37 36 36 35 34 34 34 34 33 33 33 33 33 33 32 31 30 30 30 30 30 30 30 31 30 30 31 30 30 31 31 30 29 29 28 27 27 26 25 25 25 25 25 24 24 24 23 22 21 20 19 19 18 18 16 16 15 15 15 16 19 24 29 35 40 45 49
42 41 40 40 39 38 39 39 40 40 38 35 33 34 35 36 36 37 36 36 35 35 34 33 33 33 32 31 30 30 31 32 32 31 31 31 31 31 30 30 30 30 30 30 30 30 30 30 29 29 28 28 27 26 26 26 26 26 26 26 26 26 26 26 25 24 23 23 22 22 22 23 22 21 20 19 19 19 20 22 25 29 33 38 43
38 37 36 36 36 36 37 37 36 36 34 32 32 33 35 37 37 37 36 35 34 34 34 33 33 33 33 31 30 29 28 29 29 29 30 30 30 30 30 30 30 30 30 30 29 29 29 29 29 28 27 27 26 26 26 26 27 27 27 27 27 28 27 27 27 26 26 25 25 25 26 27 27 27 26 27 27 27 27 27 28 29 31 33 35
37 36 35 35 35 35 35 34 33 33 32 32 33 35 38 39 39 38 37 36 36 36 36 36 35 35 35 35 34 33 32 31 30 29 29 29 29 29 29 29 29 29 29 29 29 29 29 28 28 28 27 26 26 26 26 26 28 28 29 29 30 30 30 29 27 27 27 27 27 28 30 31 31 31 31 31 32 33 32 31 31 32 32 32 32
38 37 36 37 36 36 36 35 35 34 34 35 36 38 39 40 39 39 38 39 40 41 41 40 38 38 38 38 38 38 37 36 35 34 33 32 32 31 31 31 31 31 31 31 30 30 30 29 29 28 28 27 27 27 27 28 29 30 31 32 33 33 32 31 29 28 29 30 30 31 32 33 33 32 32 33 33 34 34 33 33 32 32 32 32
36 36 37 37 36 36 37 37 35 35 34 35 36 37 36 36 36 36 37 40 42 42 43 42 41 42 42 41 41 40 40 39 39 38 37 37 36 36 35 35 35 34 34 34 33 32 32 31 30 30 29 29 28 28 29 30 32 32 33 33 34 34 33 32 31 30 31 32 33 34 34 34 34 34 34 34 34 34 34 34 33 33 32 32 32